Location: Newark
(14.9306°N, 3.4333°E)
Time: 03:07:26
(UTC+00:00)

First-Move - Pass Details

Date: 13 December 2019
Orbit: 576 x 669 km, 97.6° (Epoch: 18 January)

Event Time Altitude Azimuth Distance (km) Brightness Sun altitude
Rises 18:03:01 0° 188° (S) 3,001 ? -10.9°
Reaches altitude 10° 18:05:27 10° 199° (SSW) 2,088 ? -11.4°
Maximum altitude 18:09:29 31° 260° (W) 1,167 ? -12.3°
Drops below altitude 10° 18:13:29 10° 322° (NW) 2,070 ? -13.2°
Sets 18:15:54 0° 333° (NNW) 2,971 ? -13.8°
